This demonstration page uses our WeatherBlox Daily Observations layout. Learn more.

Left ArrowRight Arrow

Hourly Observations for September 14, 2022

Temp ( °F °C ) Dew Point ( °F °C ) Humidity (%) Winds ( mph kmh ) Pressure ( in mb ) Visibility ( mi km ) Precip ( " mm )
12:55 am 00:55 Clear 67 19.5 58 14.5 73 73 ESE 3 6 29.94 1014 10 16 0.00 0.00
1:55 am 01:55 Clear 66 19.1 57 14.1 73 73 ESE 3 6 29.95 1014 10 16 0.00 0.00
2:55 am 02:55 Clear 65 18.3 57 14 76 76 ESE 6 9 29.95 1014 10 16 0.00 0.00
3:55 am 03:55 Clear 64 17.8 57 13.9 78 78 ESE 5 7 29.96 1015 10 16 0.00 0.00
4:55 am 04:55 Clear 63 17.4 57 13.7 79 79 ESE 3 6 29.97 1015 10 16 0.00 0.00
5:55 am 05:55 Clear 63 17.1 56 13.4 79 79 ESE 3 6 29.98 1015 10 16 0.00 0.00
6:55 am 06:55 Clear 63 17.1 56 13.2 78 78 ESE 5 7 29.99 1016 10 16 0.00 0.00
7:55 am 07:55 Sunny 64 17.7 56 13.2 75 75 ESE 5 7 30.01 1016 10 16 0.00 0.00
8:55 am 08:55 Sunny 68 19.9 57 14 69 69 SE 8 13 30.01 1016 10 16 0.00 0.00
9:55 am 09:55 Sunny 72 22.4 56 13.4 57 57 SSE 7 11 30.01 1016 10 16 0.00 0.00
10:55 am 10:55 Sunny 77 25 58 14.7 53 53 SSE 7 11 30.02 1017 10 16 0.00 0.00
11:55 am 11:55 Sunny 80 26.8 61 16.1 52 52 SE 8 13 30.02 1017 10 16 0.00 0.00
12:55 pm 12:55 Sunny 85 29.4 63 17.2 48 48 SSE 10 17 30.00 1016 8 13 0.00 0.00
1:55 pm 13:55 Mostly Sunny 88 30.9 62 16.5 42 42 SSE 17 28 29.99 1016 9 14 0.00 0.00
2:55 pm 14:55 Sunny 89 31.9 60 15.4 37 37 SSE 17 28 29.97 1015 10 16 0.00 0.00
3:55 pm 15:55 Mostly Cloudy 89 31.7 60 15.6 38 38 SSE 17 28 29.95 1014 7 11 0.00 0.00
4:24 pm 16:24 Hazy 90 32 61 16 38 38 SE 20 31 29.89 1012 4 6 0.00 0.00
4:26 pm 16:26 Mostly Sunny 90 32 61 16 38 38 SE 18 30 29.89 1012 7 11 0.00 0.00
4:55 pm 16:55 Mostly Sunny 88 31.3 62 16.4 41 41 SE 18 30 29.94 1014 7 11 0.00 0.00
5:55 pm 17:55 Partly Cloudy 87 30.3 63 17 45 45 SE 14 22 29.94 1014 10 16 0.00 0.00
6:55 pm 18:55 Sunny 83 28.2 64 18 54 54 SE 13 20 29.95 1014 7 11 0.00 0.00
7:55 pm 19:55 Clear 80 26.5 63 17 56 56 SE 13 20 29.96 1015 10 16 0.00 0.00
8:55 pm 20:55 Clear 77 25.2 61 16.1 57 57 SE 12 19 29.98 1015 10 16 0.00 0.00
9:55 pm 21:55 Mostly Clear 76 24.3 60 15.8 59 59 SE 10 17 30.00 1016 10 16 0.00 0.00
11:00 pm 23:00 Clear 75 24 61 16 61 61 S 9 15 29.95 1014 10 16 0.00 0.00
11:55 pm 23:55 Clear 72 22.2 59 15 64 64 SSE 10 17 30.01 1016 10 16 0.00 0.00

Powered by AerisWeather